Starlink 5482

operational
NORAD ID: 56358 Int'l Des: 2023-058 Owner: SPXS Country: US Constellation: starlink
LEOCIRCULARRETROGRADESSO

About Starlink 5482

Description loading...

Live Position

Loading 3D Globe...

Upcoming Passes

Altitude History

Altitude vs Time

uPlot chart will show altitude changes over time

Two-Line Element Set

1 56358U 23058AT 26061.55821689 .00000177 00000-0 18346-4 0 9995
2 56358 97.6067 63.2724 0001378 98.8678 261.2702 15.01270095157062
Epoch: Mar 2, 2026 • Age: 40 hours

Current Status

Altitude 565.3 km
Velocity 7.58 km/s
Sub-Earth Point 21.19°N, 149.57°W
Launch Date Apr 27, 2023
Age 2.8 years
Type internet

Technical Details

Classification Payload
Mass 300.00 kg
Dry Mass 260.00 kg
Total Mass 300.00 kg
Length 0.20 m
Diameter 2.80 m
Span 9.00 m
Shape Box + pan
Manufacturer SPXS
Bus Type Starlink
Phase Status In Orbit
Owner/State SPXS/US

Large Constellations

Loading constellations...